Weather History for Monte Cimone, Italy

Change the Weather History Date:

Tuesday, October 9, 2012

  Actual Average Record
Temperature  
Mean Temperature 49 °F -  
Max Temperature 52 °F 41 °F 55 °F (1997)
Min Temperature 46 °F 33 °F 28 °F (2011)
Degree Days  
Heating Degree Days 16    
Moisture  
Dew Point 43 °F    
Average Humidity 80    
Maximum Humidity 100    
Minimum Humidity 56    
Precipitation  
Precipitation 0.00 in 0.11 in - ()
Sea Level Pressure  
Sea Level Pressure 30.03 in    
Wind  
Wind Speed 15 mph ()    
Max Wind Speed 23 mph    
Max Gust Speed -    
Visibility 3.5 miles    
Events Fog , Rain    
Averages and records for this station are not official NWS values.
T = Trace of Precipitation, MM = Missing Value Source: Averaged Metar Reports

Daily Weather History Graph

Daily Weather History Graph

Search for Another Location

Airport:

Trip Planner

Search our weather history database for the weather conditions in past years. The results will help you decide how hot, cold, wet, or windy it might be!

Date:

Astronomy

Oct. 09, 2012 Rise Set
Actual Time 7:24 AM CEST 6:43 PM CEST
Civil Twilight 6:55 AM CEST 7:12 PM CEST
Nautical Twilight 6:22 AM CEST 7:45 PM CEST
Astronomical Twilight 5:48 AM CEST 8:19 PM CEST
Moon 12:32 AM CEST (10/9) 3:12 PM CEST (10/9)
Length of Visible Light 12h 16m
Length of Day
11h 18m
Last Quarter, 39% of the Moon is Illuminated
Oct 9
Last Quarter
Oct 15
New
Oct 22
First Quarter
Oct 29
Full
Nov 7
Last Quarter

Hourly Weather History & Observations

Time (CEST) Temp. Windchill Dew Point Humidity Pressure Visibility Wind Dir Wind Speed Gust Speed Precip Events Conditions
12:55 AM 48.2 °F - 44.6 °F 87% 30.12 in 6.2 mi SW 17.3 mph - N/A   Scattered Clouds
1:55 AM 48.2 °F - 46.4 °F 93% 30.09 in 6.2 mi SW 18.4 mph - N/A   Mostly Cloudy
2:00 AM 48 °F - 46 °F 89%  in 12 mi SW 18.4 mph - -   Partly Cloudy
2:55 AM 48.2 °F - 44.6 °F 87% 30.06 in 6.2 mi SW 23.0 mph - N/A   Mostly Cloudy
3:55 AM 48.2 °F - 44.6 °F 87% 30.06 in 6.2 mi SW 21.9 mph - N/A   Mostly Cloudy
4:55 AM 48.2 °F - 46.4 °F 93% 30.04 in 6.2 mi SW 20.7 mph - N/A   Mostly Cloudy
5:55 AM 48.2 °F - 48.2 °F 100% 30.01 in 0.0 mi SW 18.4 mph - N/A Fog Fog
6:55 AM 46.4 °F 41.1 °F 46.4 °F 100% 30.01 in 0.0 mi SW 11.5 mph - N/A Fog , Rain Light Rain
7:55 AM 46.4 °F 41.1 °F 46.4 °F 100% 30.01 in 0.0 mi SW 11.5 mph - N/A Fog Fog
8:00 AM 47 °F - 46 °F 94%  in 0 mi SW 11.5 mph - - Fog Heavy Fog
8:55 AM 48.2 °F - 46.4 °F 93% 30.01 in 0.0 mi SW 16.1 mph - N/A Fog Fog
9:55 AM 48.2 °F - 46.4 °F 93% 30.01 in 0.0 mi SW 16.1 mph - N/A Fog Fog
10:55 AM 48.2 °F - 46.4 °F 93% 30.01 in 0.0 mi SW 16.1 mph - N/A Fog Fog
11:55 AM 50.0 °F - 44.6 °F 82% 30.04 in 0.2 mi SW 11.5 mph - N/A Fog Fog
12:55 PM 50.0 °F - 46.4 °F 87% 30.04 in 0.4 mi SW 11.5 mph - N/A Fog Fog
1:55 PM 51.8 °F - 42.8 °F 71% 30.01 in 3.7 mi SW 13.8 mph - N/A   Unknown
2:00 PM 52 °F - 43 °F 63%  in 2 mi SW 13.8 mph - -   Mist
2:55 PM 51.8 °F - 42.8 °F 71% 30.01 in 5.0 mi SW 11.5 mph - N/A   Scattered Clouds
3:55 PM 51.8 °F - 42.8 °F 71% 30.04 in 3.1 mi SW 13.8 mph - N/A   Scattered Clouds
4:55 PM 51.8 °F - 42.8 °F 71% 30.01 in - West 17.3 mph - N/A   Clear
5:55 PM 50.0 °F - 41.0 °F 71% 30.01 in - West 18.4 mph - N/A   Clear
6:55 PM 46.4 °F 39.5 °F 37.4 °F 71% 30.01 in - West 17.3 mph - N/A   Clear
7:55 PM 46.4 °F 39.5 °F 35.6 °F 66% 30.04 in - West 17.3 mph - N/A   Clear
8:00 PM 47 °F - 36 °F 56%  in 12 mi West 17.3 mph - -   Partly Cloudy
8:55 PM 46.4 °F 39.8 °F 37.4 °F 71% 30.04 in - West 16.1 mph - N/A   Clear
9:55 PM 48.2 °F - 33.8 °F 58% 30.04 in - WNW 18.4 mph - N/A   Clear
10:55 PM 48.2 °F - 35.6 °F 62% 30.04 in - WNW 17.3 mph - N/A   Clear
11:55 PM 48.2 °F - 35.6 °F 62% 30.04 in - WNW 18.4 mph - N/A   Clear